User: anonymous   Login
Location: Rochester
(43.1610°N, 77.6109°W)
Time: 03:24:43
(UTC-04:00)
Language:

CUTE 1.7 + AOD 2 - Orbit

View from above orbital plane
View from above orbital plane
View from above satellite
View from above satellite

Ground track
Ground track

The orbit data is extracted from the following two-line orbital elements,

1 32785U 08021C   21300.33376175  .00000777  00000-0  88483-4 0  9993
2 32785  97.6277 274.1727 0011459 289.1248  70.8728 14.88857042731795
Epoch (UTC): 27 October 2021 08:00:37
Eccentricity: 0.0011459
inclination: 97.6277°
perigee height: 593 km
apogee height: 609 km
right ascension of ascending node: 274.1727°
argument of perigee: 289.1248°
revolutions per day: 14.88857042
mean anomaly at epoch: 70.8728°
orbit number at epoch: 73179

The dashed part of the orbit path shows where the satellite is in the earth's shadow,  

DLR